Volver al catálogo

KUIPER-00072

ActivoComunicacionesLEO
NORAD 64819·PAYLOAD·🇺🇸 United States

Lanzado Jul 16, 2025 desde Cape Canaveral Space Force Station

Loading…

Próximos Pases (próximas 24 horas)

TLE

ActualizadoSource: CelesTrak SupGP

Época: Sep 14, 2026, 20:01 UTC

1 64819C 25151D   26257.83408565 -.00024647  00000+0 -32266-2 0  2575
2 64819  51.8962 166.6274 0001071  81.2644 127.5030 14.79951343    12

Sigue KUIPER-00072 en tiempo real con AllMySat

Download on the App Store